Flag for Norfolk Island Weather past 2 weeks in Kingston, Norfolk Island

Now
68 °F

Clear.


Feels Like: 68 °F
Forecast: 66 / 74 °F
Wind: 9 mph from West

Location: Norfolk Island Airport


UV Index: 5 (Moderate)

Visibility: N/A


Pressure: 29.89 "Hg

Humidity: 73%

Dew point: 59 °F

Location of KingstonLocation

Historic Weather in Kingston

°F

Kingston temperature yesterday

Maximum temperature yesterday: 73 °F (at 10:30 AM)
Minimum temperature yesterday: 66 °F (at 4:30 AM)
Average temperature yesterday: 70 °F

Past Weeks' High & Low Weather Summary

 TemperatureHumidityPressure
High75 °F (Apr 12, 10:30 AM)100% (Apr 9, 1:00 AM)30.15 "Hg (Apr 9, 1:00 AM)
Low61 °F (Apr 7, 12:30 AM)50% (Apr 18, 1:00 PM)29.42 "Hg (Apr 16, 6:00 PM)
Average69 °F80%29.95 "Hg
* Reported Apr 4 2:30 AM — Apr 19 2:30 AM, Kingston, Weather by CustomWeather, © 2014

Note: Actual official high and low records may vary slightly from our data, if they occured in-between our weather recording intervals... More about our weather records

Advertising

Historic Weather Conditions — Data for Previous 24 hours

 ConditionsComfort  
Time TempWeatherWind HumidityBarometerVisibility
2:30 AM
Apr 19
68 °FPassing clouds.10 mph78%29.89 "HgN/A
2:00 AM68 °FPartly cloudy.12 mph78%29.89 "HgN/A
1:30 AM68 °FPassing clouds.13 mph78%29.89 "HgN/A
12:30 AM68 °FClear.13 mph73%29.89 "HgN/A
12:00 AM68 °FPassing clouds.14 mph78%29.89 "HgN/A
11:30 PM
Apr 18
68 °FPassing clouds.14 mph78%29.89 "HgN/A
11:00 PM68 °FPassing clouds.15 mph78%29.89 "HgN/A
10:30 PM70 °FPassing clouds.16 mph73%29.89 "HgN/A
10:00 PM70 °FPassing clouds.15 mph69%29.89 "HgN/A
9:30 PM70 °FPassing clouds.14 mph73%29.89 "HgN/A
9:00 PM68 °FPassing clouds.12 mph78%29.89 "HgN/A
8:30 PM68 °FLight rain. Passing clouds.15 mph78%29.89 "HgN/A
8:00 PM70 °FPassing clouds.14 mph73%29.86 "HgN/A
7:30 PM70 °FPassing clouds.13 mph69%29.86 "HgN/A
7:00 PM70 °FPassing clouds.16 mph69%29.83 "HgN/A
6:30 PM70 °FPassing clouds.15 mph69%29.83 "HgN/A
6:00 PM70 °FPassing clouds.12 mph69%29.83 "HgN/A
5:30 PM70 °FPassing clouds.13 mph64%29.83 "HgN/A
5:00 PM72 °FPassing clouds.17 mph57%29.83 "HgN/A
4:30 PM72 °FPassing clouds.16 mph61%29.80 "HgN/A
4:00 PM72 °FPassing clouds.17 mph61%29.80 "HgN/A
3:30 PM73 °FScattered clouds.18 mph53%29.80 "HgN/A
3:00 PM73 °FPassing clouds.20 mph53%29.80 "HgN/A
2:30 PM73 °FPassing clouds.21 mph50%29.80 "HgN/A
2:00 PM73 °FPassing clouds.20 mph57%29.80 "HgN/A
1:30 PM73 °FPassing clouds.17 mph53%29.80 "HgN/A
1:00 PM73 °FSunny.18 mph50%29.83 "HgN/A
12:30 PM73 °FPassing clouds.20 mph53%29.83 "HgN/A
12:00 PM73 °FPassing clouds.16 mph57%29.83 "HgN/A
11:30 AM72 °FScattered clouds.17 mph65%29.83 "HgN/A
10:30 AM73 °FPassing clouds.16 mph61%29.83 "HgN/A
10:00 AM72 °FPassing clouds.17 mph65%29.86 "HgN/A
9:30 AM72 °FScattered showers. Passing clouds.17 mph69%29.83 "HgN/A
9:00 AM72 °FPassing clouds.14 mph69%29.83 "HgN/A
8:30 AM70 °FPassing clouds.14 mph69%29.83 "HgN/A
8:00 AM68 °FScattered clouds.14 mph73%29.83 "HgN/A
7:30 AM66 °FScattered showers. Partly sunny.13 mph78%29.83 "HgN/A
7:00 AM68 °FCloudy.18 mph78%29.80 "HgN/A
6:30 AM68 °FScattered clouds.15 mph69%29.80 "HgN/A
6:00 AM68 °FClear.13 mph69%29.80 "HgN/A
5:30 AM68 °FClear.12 mph73%29.80 "HgN/A
4:30 AM66 °FPassing clouds.10 mph83%29.77 "HgN/A
3:30 AM68 °FPassing clouds.14 mph73%29.77 "HgN/A
Weather by CustomWeather, © 2014

See weather overview